Mt. Lincoln Summit Weather observations

Data are for 10 minute period ending at time listed.
 Day   Time   Solar   Ave.   Ave.  Ave.  Vector    Max.   Stn.  
  of    of     Rad.   Air    Rel.  Wind   Wind     Wind   Baro.  
Year   Day            Temp.  Hum.  Speed  Dir.     Gust   Pres. 
2015   (PST)   W/m2    F      %     mph   deg.      mph    mb    
-----------------------------------------------------------------
  87    9:20  999.0    48   78.3     1     81.4     6.4   590.60
  87    9:30  999.0    48   79.4     2    116.0    10.0   592.00
  87    9:40  999.0    49   79.4     2    111.6     8.2   592.20
  87    9:50  999.0    49   79.4     2     82.2     4.4   592.40
  87   10:00  999.0    49   79.9     2    104.7    13.7   593.00
  87   10:10  999.0    50   80.0     2    119.4    13.2   591.40
  87   10:20  999.0    50   79.8     2    110.7    23.0   590.90
  87   10:30  999.0    50   79.7     3    116.1    10.2   594.10
  87   10:40  999.0    50   79.3     2     97.8     2.9   596.70
  87   10:50  999.0    50   79.1     3    112.9     4.4   592.70
  87   11:00  999.0    50   78.9     3     68.1     5.7   594.60
  87   11:10  999.0    47   80.1     3     62.5     4.8   593.60
  87   11:20  999.0    50   81.0     2    119.8     3.0   593.50
  87   11:30  999.0    52   79.1     2     84.6     3.3   594.70
  87   11:40  999.0    50   79.0     2     39.0     4.4   594.50
  87   11:50  999.0    48   80.3     4     49.9     6.4   596.60
  87   12:00  999.0    48   81.5     3     56.7     4.6   597.40
  87   12:10  999.0    50   81.4     2     80.0     3.1   594.60
  87   12:20  999.0    51   80.6     2     48.7     4.8   598.10
  87   12:30  999.0    50   80.4     4     37.0     7.4   602.00
  87   12:40  999.0    49   81.4     2     22.7     6.0   600.30
  87   12:50  999.0    49   81.9     3     12.9     5.3   599.00
  87   13:00  999.0    48   82.2     4     13.2     7.0   599.60
  87   13:10  999.0    49   82.8     4      1.7     8.1   599.80
  87   13:20  999.0    49   82.9     5    352.1     6.6   600.40
  87   13:30  999.0    49   83.1     5      6.6     6.2   602.10
  87   13:40  999.0    49   83.1     3     49.1     5.3   601.40
  87   13:50  999.0    51   82.6     2     15.1     3.1   600.60
  87   14:00  999.0    51   82.5     3    352.7     4.4   601.60
  87   14:10  999.0    51   82.1     4     38.3     6.9   601.60
  87   14:20  999.0    50   82.5     3     10.4     6.0   599.90
  87   14:30  999.0    50   82.7     3     22.5     4.9   597.40
  87   14:40  999.0    51   82.8     2     63.0     6.0   600.80
  87   14:50  999.0    54   81.6     2     79.4     6.5   600.80
  87   15:00  999.0    51   80.8     3     55.4     7.2   598.90
  87   15:10  999.0    50   81.6     4     65.4     5.6   600.10
  87   15:20  999.0    49   82.2     4     61.3     5.7   597.60
  87   15:30  999.0    49   82.9     2     62.3     3.5   597.80
  87   15:40  999.0    50   83.1     2     95.5     4.3   595.40
  87   15:50  999.0    50   82.7     2     59.4     4.6   594.70
  87   16:00  999.0    49   83.2     1     64.2     2.1   594.80
  87   16:10  999.0    50   83.0     3    122.0     4.5   595.20
  87   16:20  999.0    50   82.7     2    130.7     3.3   591.00
  87   16:30  999.0    50   82.6     1     72.7     3.3   592.70
  87   16:40  999.0    50   82.6     1    125.9     2.7   591.20
  87   16:50  999.0    51   82.4     0    106.1     1.1   589.40
  87   17:00  999.0    50   82.2     1     75.4     3.2   591.00
  87   17:10  999.0    50   82.5     0     63.4     0.3   591.10
  87   17:20  999.0    50   82.5     1    237.4     3.1   592.00
  87   17:30  999.0    49   82.9     2    234.8     4.2   592.40
  87   17:40  999.0    48   83.1     1    299.0     1.6   590.20
  87   17:50  999.0    48   83.2     1    303.3     1.9   590.70
  87   18:00  999.0    47   83.5     1    253.5     2.9   591.60
  87   18:10  999.0    47   83.5     0    290.5     0.8   592.40
  87   18:20  999.0    48   82.8     2     65.6     3.8   595.80
  87   18:30  999.0    46   82.6     5     38.7     6.6   593.30
  87   18:40  999.0    45   83.5     5     37.8     6.5   594.90
  87   18:50  999.0    45   83.6     5     43.7     6.3   593.20
  87   19:00  999.0    44   83.8     6     39.5     6.7   594.60
  87   19:10  999.0    44   83.8     6     42.1     7.0   594.20
  87   19:20  999.0    44   83.8     5     52.5     6.1   593.20
  87   19:30  999.0    43   83.8     5     57.9     5.9   591.40
  87   19:40  999.0    43   83.7     5     67.0     6.1   592.00
  87   19:50  999.0    42   83.4     4     80.5     5.7   590.10
  87   20:00  999.0    41   83.4     5     82.2     6.0   588.80
  87   20:10  999.0    41   83.7     5     75.1     7.2   588.80
  87   20:20  999.0    41   83.6     4     82.6     5.3   592.10
  87   20:30  999.0    40   83.6     4     85.7     5.4   590.90
  87   20:40  999.0    40   83.7     4     82.6     5.4   593.30
  87   20:50  999.0    40   83.8     4     83.7     5.1   594.00
  87   21:00  999.0    40   83.8     4     84.4     4.9   589.70
  87   21:10  999.0    40   83.8     5     87.2     5.4   590.10
  87   21:20  999.0    40   83.8     4     88.3     5.7   589.70
  87   21:30  999.0    40   83.9     5     92.5     5.5   591.00
  87   21:40  999.0    40   84.0     5     91.7     6.3   590.60
  87   21:50  999.0    40   83.9     6     96.5     6.3   591.20
  87   22:00  999.0    40   83.9     6     97.4     7.1   589.70
  87   22:10  999.0    41   83.9     7     99.4     8.0   593.30
  87   22:20  999.0    42   83.4     7     98.8     8.3   593.50
  87   22:30  999.0    43   82.8     7     99.8     8.7   592.30
  87   22:40  999.0    43   82.3     7    100.3     8.1   591.90
  87   22:50  999.0    43   81.7     7    106.2     8.2   596.50
  87   23:00  999.0    42   81.7     6    100.8     8.7   591.70
  87   23:10  999.0    41   82.2     5     98.5     7.5   591.70
  87   23:20  999.0    42   82.6     6    100.7     8.0   591.80
  87   23:30  999.0    42   82.2     5     97.7     6.4   592.00
  87   23:40  999.0    41   82.3     5     93.3     7.0   592.80
  87   23:50  999.0    41   82.7     5     95.4     6.0   593.20
  88    0:00  999.0    41   83.1     5     96.8     5.7   591.80
  88    0:10  999.0    41   83.3     5     97.3     6.1   589.60
  88    0:20  999.0    41   83.2     4     99.9     5.8   590.30
  88    0:30  999.0    42   82.9     4     99.9     5.7   592.80
  88    0:40  999.0    41   82.8     4     99.0     5.6   588.60
  88    0:50  999.0    41   83.0     5    102.3     6.7   591.00
  88    1:00  999.0    42   83.0     4    101.0     5.2   591.10
  88    1:10  999.0    41   83.0     4     97.6     5.0   588.80
  88    1:20  999.0    41   83.1     4     99.7     4.7   590.90
  88    1:30  999.0    41   83.0     4     99.2     4.4   590.40
  88    1:40  999.0    41   83.1     3     96.0     4.5   586.80
  88    1:50  999.0    40   83.3     3     90.8     4.6   589.30
  88    2:00  999.0    40   83.5     4     93.7     4.6   587.80
  88    2:10  999.0    40   83.6     4     96.5     5.6   593.10
  88    2:20  999.0    40   83.4     4     98.7     4.5   588.80
  88    2:30  999.0    40   83.4     3     98.7     3.9   590.30
  88    2:40  999.0    40   83.4     3     99.1     4.3   590.40
  88    2:50  999.0    40   83.4     3    100.3     4.2   591.20
  88    3:00  999.0    40   83.1     3     99.0     4.6   589.40
  88    3:10  999.0    40   83.0     3    102.3     4.8   586.80
  88    3:20  999.0    40   82.9     3    100.2     5.1   589.70
  88    3:30  999.0    40   83.2     4    104.2     5.6   588.50
  88    3:40  999.0    41   83.0     4    106.0     5.8   587.80
  88    3:50  999.0    41   82.5     4    108.3     6.0   589.00
  88    4:00  999.0    42   82.2     4    109.9     5.4   590.20
  88    4:10  999.0    42   81.6     3    109.6     4.9   591.90
  88    4:20  999.0    42   81.5     3    107.8     4.1   592.20
  88    4:30  999.0    41   81.7     3    107.8     3.9   591.60
  88    4:40  999.0    40   82.1     3    107.1     3.8   587.30
  88    4:50  999.0    40   82.5     3    109.5     3.4   589.30
  88    5:00  999.0    41   82.5     3    113.6     3.7   590.10
  88    5:10  999.0    42   82.2     3    112.5     4.1   591.40
  88    5:20  999.0    42   82.0     3    112.9     3.8   591.30
  88    5:30  999.0    41   82.1     3    114.0     4.2   590.60
  88    5:40  999.0    41   82.3     2    111.1     3.1   589.80
  88    5:50  999.0    41   82.5     2    115.6     2.6   590.60
  88    6:00  999.0    41   83.0     1    130.9     1.9   591.00
  88    6:10  999.0    43   83.3     2    155.9     2.4   591.60
  88    6:20  999.0    47   82.2     2    137.1     3.2   589.80
  88    6:30  999.0    48   80.3     2    127.7     6.7   590.90
  88    6:40  999.0    50   78.6     2    121.0     3.5   590.60
  88    6:50  999.0    50   77.3     3    112.6    10.7   586.00
  88    7:00  999.0    51   76.3     8    109.9    13.6   586.20
  88    7:10  999.0    52   75.5     8    111.6    13.6   588.10
  88    7:20  999.0    52   74.9     9    115.4    12.3   590.10
  88    7:30  999.0    53   74.6     5    114.0    10.6   590.10
  88    7:40  999.0    54   74.0     5    114.8    10.3   588.00
  88    7:50  999.0    55   73.6     4    120.6    10.2   589.20
  88    8:00  999.0    56   73.5     3    110.1     8.6   588.40
  88    8:10  999.0    57   73.4     1    115.7     4.7   591.50
  88    8:20  999.0    59   73.4     0    106.5     1.6   590.30
  88    8:30  999.0    59   73.4     0     94.0     3.0   592.20
  88    8:40  999.0    58   73.0     1     98.1     2.6   593.80
  88    8:50  999.0    57   72.7     2     99.4     7.4   596.00
  88    9:00  999.0    55   73.7     2    100.2     6.4   596.50
  88    9:10  999.0    52   75.5     3    106.9    10.9   597.40

Return to Mt. Lincoln graphs page.


Western Regional Climate Center,wrcc@dri.edu